Weather History for Clines Corner, NM

Change the Weather History Date:

Saturday, October 27, 2012

  Actual Average (KSAF) Record (KSAF)
Temperature  
Mean Temperature 38 °F -  
Max Temperature 57 °F 55 °F 70 °F (2001)
Min Temperature 19 °F 32 °F 21 °F (2012)
Degree Days  
Heating Degree Days 27    
Moisture  
Dew Point 14 °F    
Average Humidity 42    
Maximum Humidity 81    
Minimum Humidity 15    
Precipitation  
Precipitation 0.00 in - - ()
Sea Level Pressure  
Sea Level Pressure 30.14 in    
Wind  
Wind Speed 12 mph (West)    
Max Wind Speed 26 mph    
Max Gust Speed 33 mph    
Visibility 10 miles    
Events      
Averages and records for this station are not official NWS values.
T = Trace of Precipitation, MM = Missing Value Source: NWS Daily Summary

Daily Weather History Graph

Daily Weather History Graph

Search for Another Location

Airport:

Trip Planner

Search our weather history database for the weather conditions in past years. The results will help you decide how hot, cold, wet, or windy it might be!

Date:

Astronomy

Oct. 27, 2012 Rise Set
Actual Time 7:19 AM MDT 6:12 PM MDT
Civil Twilight 6:53 AM MDT 6:38 PM MDT
Nautical Twilight 6:23 AM MDT 7:08 PM MDT
Astronomical Twilight 5:54 AM MDT 7:37 PM MDT
Moon 4:58 PM MDT (10/27) 5:20 AM MDT (10/27)
Length of Visible Light 11h 45m
Length of Day
10h 53m
Waxing Gibbous, 96% of the Moon is Illuminated
Oct 27
Waxing Gibbous
Oct 29
Full
Nov 6
Last Quarter
Nov 13
New
Nov 20
First Quarter

Hourly Weather History & Observations

Time (MDT) Temp. Windchill Dew Point Humidity Pressure Visibility Wind Dir Wind Speed Gust Speed Precip Events Conditions
12:53 AM 26.1 °F 17.6 °F 18.0 °F 71% 30.30 in 10.0 mi SSE 8.1 mph - N/A   Clear
1:53 AM 25.0 °F 16.3 °F 17.1 °F 72% 30.26 in 10.0 mi South 8.1 mph - N/A   Clear
2:53 AM 24.1 °F 14.4 °F 17.1 °F 75% 30.24 in 10.0 mi South 9.2 mph - N/A   Clear
3:53 AM 23.0 °F 13.9 °F 16.0 °F 74% 30.21 in 10.0 mi South 8.1 mph - N/A   Clear
4:53 AM 23.0 °F 13.1 °F 15.1 °F 72% 30.21 in 10.0 mi SSW 9.2 mph - N/A   Clear
5:53 AM 23.0 °F 14.7 °F 16.0 °F 74% 30.21 in 10.0 mi SW 6.9 mph - N/A   Clear
6:53 AM 19.9 °F 11.1 °F 15.1 °F 81% 30.25 in 10.0 mi WSW 6.9 mph - N/A   Clear
8:53 AM 35.1 °F 25.9 °F 19.9 °F 54% 30.20 in 10.0 mi West 13.8 mph - N/A   Clear
9:53 AM 37.9 °F 29.2 °F 19.0 °F 47% 30.19 in 10.0 mi West 15.0 mph - N/A   Clear
10:53 AM 42.1 °F 33.9 °F 19.9 °F 41% 30.17 in 10.0 mi West 17.3 mph - N/A   Clear
11:53 AM 46.0 °F 39.0 °F 19.9 °F 35% 30.14 in 10.0 mi West 17.3 mph 23.0 mph N/A   Clear
12:53 PM 51.1 °F - 18.0 °F 27% 30.08 in 10.0 mi West 19.6 mph 26.5 mph N/A   Clear
1:53 PM 54.0 °F - 15.1 °F 22% 30.05 in 10.0 mi West 18.4 mph 28.8 mph N/A   Clear
2:53 PM 57.0 °F - 10.9 °F 16% 30.01 in 10.0 mi West 24.2 mph 28.8 mph N/A   Clear
3:53 PM 57.0 °F - 10.0 °F 15% 30.02 in 10.0 mi WNW 23.0 mph 33.4 mph N/A   Clear
4:53 PM 55.9 °F - 10.9 °F 17% 30.02 in 10.0 mi WNW 26.5 mph 32.2 mph N/A   Clear
5:53 PM 52.0 °F - 10.9 °F 19% 30.05 in 10.0 mi WNW 24.2 mph 28.8 mph N/A   Clear
6:53 PM 48.9 °F - 9.0 °F 20% 30.11 in 10.0 mi NW 17.3 mph 27.6 mph N/A   Clear
7:53 PM 45.0 °F 39.3 °F 9.0 °F 23% 30.14 in 10.0 mi NW 11.5 mph - N/A   Clear
8:53 PM 45.0 °F 37.6 °F 9.0 °F 23% 30.09 in 10.0 mi WNW 17.3 mph - N/A   Clear
9:53 PM 39.0 °F 31.8 °F 9.0 °F 29% 30.12 in 10.0 mi WNW 11.5 mph - N/A   Clear
10:53 PM 39.9 °F 34.5 °F 10.0 °F 29% 30.12 in 10.0 mi NNW 8.1 mph - N/A   Clear
11:53 PM 37.9 °F 31.5 °F 9.0 °F 30% 30.11 in 10.0 mi WNW 9.2 mph - N/A   Clear